Location: *
(50.0228°S, 177.2688°W)
Time: 08:37:37
(UTC+00:00)

STARLINK-1045 - Pass Details

Date: 07 April 2020
Orbit: 549 x 550 km, 53.0° (Epoch: 02 June)

Event Time Altitude Azimuth Distance (km) Brightness Sun altitude
Rises 07:23:23 0° 259° (WSW) 2,748 8.8 -20.1°
Reaches altitude 10° 07:25:39 10° 254° (WSW) 1,853 7.5 -20.5°
Maximum altitude 07:29:49 58° 174° (S) 659 3.9 -21.1°
Enters shadow 07:30:28 51° 135° (SE) 711 3.9 -21.2°
